map of UTP home
Great Circle Mapper logo
UTP - Airport
Location
City:  Rayong, Thailand
Name:U-Taphao International Airport
ICAO / IATA:VTBU / UTP

Details
Type:Airport (Aerodrome, Airfield)
Use:Military, International (customs port of entry)
Latitude:12°40'48"N (12.679944)
Longitude:101°00'18"E (101.005028)
Datum:WGS 1984
Elevation:42 ft (13 m)
Runways:1
Longest:11500 × 197 ft (3505 × 60 m), paved

Time
Time Zone:UTC+7
Local Time:

Weather
METAR:VTBU 010600Z 18006KT 8000 TS FEW018CB BKN300 32/24 Q1007 A2976 TS NE LTG
TAF:VTBU 010500Z 0106/0206 17006KT 9999 FEW020 BKN300
TEMPO 0106/0108 FEW020CB
TEMPO 0108/0113 VRB10KT 5000 -TSRA FEW018CB SCT035 BKN110
BECMG 0113/0115 34004KT 8000 FEW020 SCT120 BKN300

Related Locations
Nearby:
Farthest:LIM: 12312 mi / 19814 km
Lima (Callao) [Jorge Chávez Intl], PE

Find:

   beyond  
but within

Other Information
Maps:
NOTAMs:
Links:
Sources:

  
flag of Thailand   

Airport Diagram

Airport diagram for UTP

Airport diagram (OBSOLETE) from NGA

Sectional Chart

Flight Planning
at skyvector.com

Satellite Image

Google Maps Satellite View

 

Copyright © 2004-2014 Karl L. Swartz. All rights reserved.
The Great Circle Mapper name and logo are trademarks of the Great Circle Mapper.
All other trademarks mentioned herein belong to their respective owners.
Please see credits for attibutions and further copyright information.

  Follow gcmap on Facebook Follow gcmap on Twitter

hCard Microformat

Geo Microformat